Location: Unspecified
(0.0000°N, 0.0000°E)
Time: 10:39:27
(UTC+00:00)

Explorer 11/Cluster Stage 4 - Pass Details

Date: 01 November 2024
Orbit: 464 x 1202 km, 28.8° (Epoch: 05 December)

Event Time Altitude Azimuth Distance (km) Brightness Sun altitude
Rises 19:20:18 0° 272° (W) 4,073 11.5 -23.3°
Reaches altitude 10° 19:23:46 10° 259° (W) 3,136 10.7 -24.2°
Maximum altitude 19:29:59 25° 208° (SSW) 2,197 9.2 -25.7°
Drops below altitude 10° 19:36:00 10° 156° (SSE) 3,011 9.5 -27.1°
Enters shadow 19:37:56 - 147° (SSE) 3,505 9.7 -27.6°
